#datint,netname,site,siteID,timestamp,IntT,BattV,AirT2,AirT,AirT_Avg,AirT_Max,AirT_Min,RH_Avg,RH_Max,RH_Min,EA_Avg,Td_Avg,Td_Max,Td_Min,WindS_Smp,WindS_Avg,WindD_Avg,WindD_SD,WindS_Max,ETo,ETr,SoilT4,SoilT8,SoilVWC8,SolarW_Avg,wetstate_Avg,wetT_Avg,Precip_accum,Precip_WPG,Precip_TB
15min,AgWx,beryljct,423,08MAR2018:00:00:00,28.0,12.85,25.8,26.2,26.7,27.0,26.2,85,86,83,0.411,22.9,23.4,22.4,2.302,3.0,158,15,3.9,0.00003,0.00005,33.8,35.4,22,0,0,35.7,12.51,0.00,0.00
15min,AgWx,beryljct,423,08MAR2018:00:15:00,27.3,12.84,25.1,25.9,26.3,27.0,25.7,84,86,82,0.403,22.1,23.0,21.5,2.894,3.0,170,12,4.0,0.00004,0.00005,33.8,35.4,22,0,0,35.6,12.51,0.00,0.00
15min,AgWx,beryljct,423,08MAR2018:00:30:00,26.6,12.83,25.1,25.9,25.8,26.1,25.5,85,85,84,0.401,21.8,22.2,21.4,1.995,2.7,153,19,4.4,0.00003,0.00004,33.7,35.4,22,0,0,35.6,12.51,0.00,0.00
15min,AgWx,beryljct,423,08MAR2018:00:45:00,26.0,12.82,24.8,25.4,25.4,25.8,25.0,85,86,84,0.397,21.5,21.8,21.2,1.425,1.0,179,4.9,2.0,0.00001,0.00001,33.5,35.4,22,0,0,35.6,12.51,0.00,0.00
15min,AgWx,beryljct,423,08MAR2018:01:00:00,25.4,12.82,25.1,25.8,25.5,25.9,25.2,85,86,85,0.400,21.7,22.0,21.3,0,0.7,188,8.1,1.9,0.00000,0.00001,33.5,32.0,0,0,0,35.5,12.51,0.00,0.00
15min,AgWx,beryljct,423,08MAR2018:01:15:00,24.9,12.8,25.0,25.7,25.6,25.8,25.4,85,85,84,0.399,21.6,21.9,21.3,0,0.0,177,0.0,0.0,-0.00001,-0.00002,33.4,35.4,22,0,0,35.5,12.51,0.00,0.00
15min,AgWx,beryljct,423,08MAR2018:01:30:00,24.7,12.8,24.6,25.1,25.9,26.5,25.1,84,85,82,0.387,21.7,22.4,20.9,3.464,2.1,207,78,3.7,0.00003,0.00004,33.4,35.4,22,0,0,35.5,12.51,0.00,0.00
15min,AgWx,beryljct,423,08MAR2018:01:45:00,24.4,12.78,23.6,24.2,24.8,25.2,24.1,85,86,84,0.376,21.0,21.6,20.2,2.74,2.3,112,25,3.5,0.00002,0.00004,33.2,35.4,22,0,0,35.4,12.51,0.00,0.00
15min,AgWx,beryljct,423,08MAR2018:02:00:00,24.1,12.65,23.4,24.1,24.1,24.3,23.8,85,86,84,0.378,20.2,20.6,19.9,0,1.0,122,27,2.9,0.00001,0.00001,33.2,35.4,22,0,0,35.6,12.51,0.00,0.00
15min,AgWx,beryljct,423,08MAR2018:02:15:00,23.7,12.77,24.1,24.4,24.1,24.6,23.6,85,86,84,0.378,20.3,20.8,19.6,0.197,0.9,234,60,2.9,0.00000,0.00001,33.2,35.4,22,0,0,35.7,12.51,0.00,0.00
15min,AgWx,beryljct,423,08MAR2018:02:30:00,23.3,12.76,24.4,24.8,24.8,25.0,24.3,84,85,82,0.372,20.6,21.0,20.1,0.877,0.5,337,17,1.6,-0.00000,-0.00000,33.1,35.3,22,0,0,35.7,12.51,0.00,0.00
15min,AgWx,beryljct,423,08MAR2018:02:45:00,22.9,12.75,24.0,24.3,24.6,25.0,24.2,82,82,82,0.364,19.9,20.3,19.5,0,0.0,1.1,0.0,0.9,-0.00001,-0.00002,33.0,32.0,0,0,0,35.5,12.51,0.00,0.00
15min,AgWx,beryljct,423,08MAR2018:03:00:00,22.5,12.75,23.1,23.6,24.1,24.4,23.6,82,84,82,0.362,19.5,19.7,19.2,0,0.1,359,1.3,0.8,-0.00001,-0.00002,32.9,35.3,22,0,0,35.6,12.51,0.00,0.00
15min,AgWx,beryljct,423,08MAR2018:03:15:00,22.1,12.61,22.9,23.4,23.4,23.7,23.0,86,87,84,0.372,19.8,20.2,19.2,2.039,0.8,78,13,2.4,0.00000,0.00000,32.9,35.3,22,0,0,35.6,12.51,0.00,0.00
15min,AgWx,beryljct,423,08MAR2018:03:30:00,21.8,12.73,21.8,22.4,23.0,23.5,22.4,87,87,86,0.355,19.7,20.1,18.9,0,0.5,71,2.5,2.2,-0.00000,-0.00000,32.7,35.3,22,0,0,35.6,12.51,0.00,0.00
15min,AgWx,beryljct,423,08MAR2018:03:45:00,21.5,12.72,22.1,22.4,23.0,23.4,22.4,86,86,85,0.354,19.3,19.8,18.7,0.592,0.3,93,0.3,0.8,-0.00001,-0.00001,32.7,35.3,22,0,0,35.6,12.51,0.00,0.00
15min,AgWx,beryljct,423,08MAR2018:04:00:00,21.2,12.71,22.1,22.6,22.9,23.2,22.5,86,86,86,0.358,19.4,19.7,19.0,0,0.1,93,0.0,0.5,-0.00001,-0.00002,32.7,35.3,22,0,0,35.6,12.51,0.00,0.00
15min,AgWx,beryljct,423,08MAR2018:04:15:00,21.0,12.71,22.7,23.3,23.1,23.7,22.4,86,87,86,0.367,19.7,20.3,19.0,1.25,2.0,185,4.1,3.1,0.00002,0.00003,32.6,35.3,22,0,0,35.7,12.51,0.00,0.00
15min,AgWx,beryljct,423,08MAR2018:04:30:00,20.8,12.7,21.6,21.8,22.8,23.2,21.8,87,87,86,0.348,19.4,19.7,18.5,0.11,0.2,183,0.7,1.4,-0.00001,-0.00001,32.6,35.3,22,0,0,35.5,12.51,0.00,0.00
15min,AgWx,beryljct,423,08MAR2018:04:45:00,20.6,12.56,20.9,21.7,21.4,22.0,20.9,87,88,86,0.347,18.2,18.6,17.8,1.359,1.0,129,23,1.9,0.00000,0.00001,32.5,35.3,22,0,0,35.5,12.51,0.00,0.00
15min,AgWx,beryljct,423,08MAR2018:05:00:00,20.2,12.66,20.8,21.3,21.2,21.5,20.8,87,87,87,0.342,18.0,18.3,17.6,1.995,1.3,156,2.9,2.0,0.00001,0.00001,32.4,35.2,22,0,0,35.6,12.51,0.00,0.00
15min,AgWx,beryljct,423,08MAR2018:05:15:00,19.9,12.67,20.3,20.9,21.1,21.4,20.7,87,88,87,0.338,17.9,18.2,17.6,1.754,0.9,146,8.1,2.0,0.00000,0.00001,32.4,35.2,22,0,0,35.7,12.51,0.00,0.00
15min,AgWx,beryljct,423,08MAR2018:05:30:00,19.7,12.66,19.9,20.0,20.3,20.8,19.9,88,88,87,0.325,17.3,17.7,16.9,2.718,2.3,152,20,3.2,0.00002,0.00002,32.3,35.2,22,0,0,35.5,12.51,0.00,0.00
15min,AgWx,beryljct,423,08MAR2018:05:45:00,19.5,12.65,19.7,20.3,20.6,21.1,20.1,88,88,87,0.330,17.4,17.9,17.0,0,1.0,188,0.2,2.7,0.00000,0.00001,32.2,32.0,0,0,0,35.5,12.51,0.00,0.00
15min,AgWx,beryljct,423,08MAR2018:06:00:00,19.2,12.65,20.2,20.7,20.0,20.7,19.6,88,88,87,0.334,17.0,17.5,16.6,1.469,0.4,188,0.1,1.7,-0.00001,-0.00001,32.2,35.2,22,0,0,35.8,12.51,0.00,0.00
15min,AgWx,beryljct,423,08MAR2018:06:15:00,18.9,12.51,20.4,20.6,20.9,21.2,20.6,87,88,87,0.333,17.7,18.0,17.4,0,0.3,187,0.4,1.4,0.00001,0.00002,32.1,35.1,22,0,0,35.5,12.51,0.00,0.00
15min,AgWx,beryljct,423,08MAR2018:06:30:00,18.6,12.64,21.4,21.8,21.3,21.9,20.6,87,88,87,0.351,18.1,18.7,17.5,1.25,0.8,187,0.6,1.3,0.00002,0.00003,32.0,35.1,22,0,0,35.5,12.51,0.00,0.00
15min,AgWx,beryljct,423,08MAR2018:06:45:00,18.5,12.64,21.1,21.6,21.7,22.2,21.2,87,88,87,0.347,18.5,19.0,17.8,1.096,0.8,187,1.0,1.5,0.00002,0.00003,31.9,35.1,22,0,0,35.4,12.51,0.00,0.00
15min,AgWx,beryljct,423,08MAR2018:07:00:00,18.4,12.62,20.8,21.2,21.6,21.8,21.2,86,87,85,0.334,18.1,18.6,17.5,2.433,0.4,186,21,2.4,0.00002,0.00003,32.0,35.1,22,3,0,35.7,12.51,0.00,0.00
15min,AgWx,beryljct,423,08MAR2018:07:15:00,18.8,12.68,20.6,21.4,20.9,21.4,19.9,87,88,85,0.340,17.6,18.3,16.3,1.118,1.7,13,23,3.2,0.00013,0.00016,31.8,35.0,22,32,0,35.7,12.51,0.00,0.00
15min,AgWx,beryljct,423,08MAR2018:07:30:00,20.2,12.69,21.0,21.6,21.6,21.8,21.3,86,87,86,0.344,18.1,18.4,17.7,1.798,1.5,60,12,2.1,0.00023,0.00027,31.9,35.0,22,68,0,35.5,12.51,0.00,0.00
15min,AgWx,beryljct,423,08MAR2018:07:45:00,21.3,12.86,21.6,22.6,21.6,22.6,21.2,87,87,85,0.353,18.2,18.9,17.9,0.68,1.5,61,3.6,2.3,0.00030,0.00033,31.7,35.0,22,91,0,36.0,12.51,0.00,0.00
15min,AgWx,beryljct,423,08MAR2018:08:00:00,23.7,13.13,24.2,25.4,24.5,25.8,22.4,81,85,76,0.354,19.4,20.0,18.7,0,0.1,64,0.8,1.1,0.00048,0.00051,31.8,35.0,22,151,0,35.9,12.51,0.00,0.00
15min,AgWx,beryljct,423,08MAR2018:08:15:00,26.2,13.47,26.0,26.0,25.5,26.0,25.1,77,80,76,0.383,19.4,20.7,18.6,0.395,0.6,63,1.8,1.5,0.00057,0.00062,31.7,35.0,22,172,0,35.8,12.51,0.00,0.00
15min,AgWx,beryljct,423,08MAR2018:08:30:00,29.0,13.8,28.0,28.2,27.5,28.3,26.0,77,80,75,0.394,21.4,21.8,20.8,0,0.1,64,0.4,0.8,0.00076,0.00081,31.6,35.0,22,222,0,39.4,12.52,0.00,0.00
15min,AgWx,beryljct,423,08MAR2018:08:45:00,32.1,14.03,29.6,30.0,29.4,30.2,28.2,73,75,71,0.416,21.9,22.7,21.4,1.578,0.4,138,11,1.8,0.00098,0.00106,31.6,35.0,22,277,0,43.9,12.52,0.00,0.00
15min,AgWx,beryljct,423,08MAR2018:09:00:00,34.7,14.2,31.1,31.4,30.7,31.4,30.0,73,75,70,0.419,23.0,23.7,22.2,1.863,1.7,135,11,2.4,0.00112,0.00125,31.6,35.0,22,308,0,44.5,12.52,0.00,0.00
15min,AgWx,beryljct,423,08MAR2018:09:15:00,36.9,14.3,34.1,33.5,32.5,33.5,31.4,65,71,61,0.423,22.1,23.1,21.0,1.184,0.9,109,18,2.0,0.00121,0.00132,31.6,35.0,22,309,0,46.2,12.52,0.00,0.00
15min,AgWx,beryljct,423,08MAR2018:09:30:00,39.8,14.78,37.9,37.2,35.5,37.9,33.5,56,66,49,0.374,21.4,23.3,20.0,0,0.2,94,0.4,0.9,0.00153,0.00164,31.5,34.9,22,373,0,51.4,12.52,0.00,0.00
15min,AgWx,beryljct,423,08MAR2018:09:45:00,43.5,14.71,37.2,37.1,36.5,37.2,35.8,53,56,50,0.370,20.8,22.4,19.2,0,1.0,343,15,2.2,0.00179,0.00197,31.6,34.9,22,427,0,53.5,12.52,0.00,0.00
15min,AgWx,beryljct,423,08MAR2018:10:00:00,46.9,14.63,42.9,41.9,39.9,41.9,37.3,43,50,40,0.382,19.1,20.9,17.1,0,0.0,3.2,0.0,0.9,0.00190,0.00203,31.5,34.9,22,426,0,59.0,12.52,0.00,0.00
15min,AgWx,beryljct,423,08MAR2018:10:15:00,50.2,14.58,41.7,40.9,41.7,42.8,40.5,43,47,41,0.401,21.0,22.1,20.1,1.052,0.8,61,20,2.3,0.00231,0.00252,31.5,34.9,22,500,0,63.3,12.52,0.00,0.00
15min,AgWx,beryljct,423,08MAR2018:10:30:00,52.6,14.54,43.3,43.4,42.1,43.4,40.9,44,47,41,0.418,21.7,23.2,19.7,0.965,1.4,87,28,3.0,0.00252,0.00281,31.5,34.8,22,545,0,62.8,12.52,0.00,0.00
15min,AgWx,beryljct,423,08MAR2018:10:45:00,54.9,14.49,45.6,45.6,43.8,45.6,42.8,38,43,32,0.352,19.7,22.3,16.5,0.965,0.8,26,34,2.3,0.00270,0.00296,31.5,34.8,22,568,0,65.7,12.52,0.00,0.00
15min,AgWx,beryljct,423,08MAR2018:11:00:00,57.2,14.45,47.2,46.4,45.7,46.4,44.9,34,37,32,0.363,19.0,21.1,17.8,0,0.9,86,34,2.5,0.00286,0.00314,31.5,34.8,22,581,0,69.7,12.52,0.00,0.00
15min,AgWx,beryljct,423,08MAR2018:11:15:00,59.2,14.43,46.9,47.1,47.4,48.3,46.6,36,40,33,0.403,21.6,24.7,19.8,2.061,1.4,140,31,3.5,0.00319,0.00354,31.4,34.8,22,632,0,72.7,12.52,0.00,0.00
15min,AgWx,beryljct,423,08MAR2018:11:30:00,60.2,14.43,48.8,49.0,47.7,49.0,46.9,35,38,32,0.384,21.7,23.5,20.6,0,1.4,103,28,3.4,0.00322,0.00357,31.5,34.8,22,635,0,71.2,12.52,0.00,0.00
15min,AgWx,beryljct,423,08MAR2018:11:45:00,60.8,14.36,48.5,48.7,49.0,50.1,48.5,36,40,32,0.405,23.3,25.3,21.0,2.411,3.2,118,16,5.7,0.00336,0.00390,31.7,34.7,22,641,0,70.9,12.52,0.00,0.00
15min,AgWx,beryljct,423,08MAR2018:12:00:00,61.0,14.34,51.0,51.2,50.1,51.2,48.8,34,37,33,0.464,22.9,25.3,20.9,5.152,3.3,118,23,7.0,0.00371,0.00429,32.0,34.7,22,709,0,70.9,12.52,0.00,0.00
15min,AgWx,beryljct,423,08MAR2018:12:15:00,61.0,13.94,52.5,52.2,52.0,52.5,51.3,33,37,31,0.467,24.1,26.4,22.3,4.143,4.3,110,17,6.7,0.00352,0.00421,32.7,34.7,22,626,0,68.3,12.52,0.00,0.00
15min,AgWx,beryljct,423,08MAR2018:12:30:00,61.4,13.94,55.1,55.3,54.1,55.4,52.7,29,34,23,0.372,22.4,25.8,18.3,5.941,4.9,130,16,7.6,0.00332,0.00409,33.4,34.7,22,541,0,66.3,12.51,0.00,0.00
15min,AgWx,beryljct,423,08MAR2018:12:45:00,63.2,13.94,57.7,58.1,57.1,58.6,55.6,22,26,18,0.307,18.3,21.8,14.4,8.29,6.5,142,28,12.1,0.00426,0.00537,34.3,34.6,22,682,0,70.4,12.52,0.00,0.00
15min,AgWx,beryljct,423,08MAR2018:13:00:00,63.4,13.9,59.1,59.3,58.5,59.3,57.7,19,23,15,0.337,15.8,21.1,10.8,11.33,7.7,176,22,11.5,0.00423,0.00551,35.6,34.7,22,624,.,.,10.96,0.00,0.00
15min,AgWx,beryljct,423,08MAR2018:13:15:00,62.6,13.93,58.6,58.8,58.8,59.5,58.4,17,20,14,0.289,14.0,18.4,9.9,8.29,7.8,181,19,11.7,0.00396,0.00526,35.7,34.7,22,547,0,69.3,10.96,0.00,0.00
15min,AgWx,beryljct,423,08MAR2018:13:30:00,63.3,13.91,59.1,59.4,59.1,59.6,58.4,17,20,14,0.314,13.6,18.8,10.5,5.393,8.2,176,16,12.9,0.00424,0.00562,.,.,.,610,0,71.4,10.96,0.00,0.00
15min,AgWx,beryljct,423,08MAR2018:13:45:00,66.2,13.87,60.5,60.1,59.7,60.3,59.2,16,21,14,0.304,13.7,20.2,10.7,7.322,5.8,180,31,11.3,0.00396,0.00506,.,.,.,597,0,74.1,10.96,0.00,0.00
15min,AgWx,beryljct,423,08MAR2018:14:00:00,67.9,13.84,61.6,61.4,60.7,61.4,59.9,18,24,14,0.432,16.5,24.1,10.9,5.415,6.6,195,32,10.3,0.00432,0.00553,.,.,.,662,.,.,10.96,0.00,0.00
15min,AgWx,beryljct,423,08MAR2018:14:15:00,67.1,13.87,60.6,60.6,60.7,61.8,60.1,21,25,18,0.324,20.2,24.2,16.0,6.686,7.4,230,28,10.9,0.00382,0.00505,.,.,.,542,.,.,10.96,0.00,0.00
15min,AgWx,beryljct,423,08MAR2018:14:30:00,66.9,13.84,60.5,60.4,60.4,61.1,60.0,19,23,17,0.311,18.5,22.4,15.4,2.521,5.4,217,24,10.0,0.00340,0.00440,.,.,.,504,.,.,10.96,0.00,0.00
15min,AgWx,beryljct,423,08MAR2018:14:45:00,67.2,13.85,61.2,60.6,60.5,60.8,60.1,18,22,16,0.307,16.9,21.7,14.5,2.17,4.7,216,23,9.5,0.00319,0.00411,.,.,.,483,.,.,10.96,0.00,0.00
15min,AgWx,beryljct,423,08MAR2018:15:00:00,66.5,13.86,60.2,60.2,60.8,61.4,60.2,19,21,17,0.358,17.9,21.3,14.8,3.639,6.5,266,27,11.1,0.00312,0.00424,.,.,.,426,.,.,10.96,0.00,0.00
15min,AgWx,beryljct,423,08MAR2018:15:15:00,65.8,13.84,60.4,60.3,60.5,60.8,60.2,19,22,16,0.308,18.1,21.4,14.5,4.889,5.7,231,24,8.2,0.00280,0.00379,.,.,.,393,.,.,10.96,0.00,0.00
15min,AgWx,beryljct,423,08MAR2018:15:30:00,65.9,13.84,60.9,60.6,60.8,61.2,60.2,18,21,15,0.298,16.5,20.7,13.3,3.683,4.2,203,30,7.3,0.00261,0.00342,.,.,.,416,.,.,10.96,0.00,0.00
15min,AgWx,beryljct,423,08MAR2018:15:45:00,66.2,13.85,62.4,62.2,60.9,62.2,60.5,17,21,15,0.363,15.6,20.7,12.9,7.673,5.1,192,33,8.4,0.00298,0.00393,.,.,.,460,.,.,10.96,0.00,0.00
15min,AgWx,beryljct,423,08MAR2018:16:00:00,66.5,13.83,60.9,61.0,61.5,62.2,60.8,17,19,15,0.328,16.2,19.7,13.6,5.809,6.9,183,22,11.9,0.00362,0.00485,.,.,.,520,.,.,10.96,0.00,0.00
15min,AgWx,beryljct,423,08MAR2018:16:15:00,66.3,13.82,60.1,61.0,61.4,62.5,61.0,17,21,15,0.288,15.9,21.6,12.8,5.415,6.9,175,19,14.8,0.00327,0.00449,.,.,.,458,.,.,10.96,0.00,0.00
15min,AgWx,beryljct,423,08MAR2018:16:30:00,65.1,13.83,61.9,61.1,61.1,61.4,60.8,17,21,15,0.309,15.7,21.4,12.8,8.64,7.9,178,19,11.7,0.00304,0.00433,.,.,.,400,.,.,10.96,0.00,0.00
15min,AgWx,beryljct,423,08MAR2018:16:45:00,64.5,13.84,61.0,61.1,61.4,61.7,61.1,17,19,15,0.304,15.7,18.7,13.1,10.24,8.2,174,15,14.6,0.00305,0.00439,.,.,.,388,.,.,10.96,0.00,0.00
15min,AgWx,beryljct,423,08MAR2018:17:00:00,63.2,13.84,61.3,60.8,60.3,61.1,59.6,18,21,15,0.314,16.2,20.6,12.3,9.69,8.6,179,18,12.2,0.00242,0.00374,.,.,.,274,.,.,10.96,0.00,0.00
15min,AgWx,beryljct,423,08MAR2018:17:15:00,62.8,14.21,60.0,59.8,59.9,60.0,59.8,18,18,17,0.306,15.8,16.7,15.2,8.75,8.5,203,8.1,9.3,0.00111,0.00232,41.3,39.6,23,258,0,62.3,12.51,1.55,0.00
15min,AgWx,beryljct,423,08MAR2018:17:30:00,62.8,14.06,59.5,59.2,59.4,59.8,59.0,19,21,17,0.325,16.6,19.3,14.0,6.883,7.2,209,8.5,9.9,0.00191,0.00302,41.5,39.6,23,223,0,61.3,12.51,0.00,0.00
15min,AgWx,beryljct,423,08MAR2018:17:45:00,62.1,13.41,58.8,58.0,58.7,59.2,58.0,19,21,18,0.332,16.8,19.1,15.1,6.818,7.3,207,7.4,9.4,0.00121,0.00152,41.7,39.5,23,171,0,60.0,12.50,0.00,0.00
15min,AgWx,beryljct,423,08MAR2018:18:00:00,61.1,13.07,57.4,56.2,57.3,58.2,56.1,20,22,19,0.325,16.8,19.2,15.5,8.92,7.6,189,9.9,11.3,0.00109,0.00136,41.8,39.4,23,124,0,57.6,12.51,0.00,0.00
15min,AgWx,beryljct,423,08MAR2018:18:15:00,59.3,13.08,55.0,54.1,55.1,56.3,54.1,23,25,21,0.338,18.2,19.4,16.7,7.322,7.4,189,5.7,9.8,0.00090,0.00113,41.9,39.4,23,67,0,53.6,12.51,0.00,0.00
15min,AgWx,beryljct,423,08MAR2018:18:30:00,57.1,12.93,51.9,50.6,52.1,54.0,50.6,26,28,24,0.354,18.3,19.3,17.5,7.388,7.1,193,5.6,8.6,0.00071,0.00090,42.0,39.4,23,15,0,50.1,12.51,0.00,0.00
15min,AgWx,beryljct,423,08MAR2018:18:45:00,54.7,12.9,50.6,49.9,50.5,51.0,49.8,27,28,25,0.336,17.9,18.9,16.7,8.94,7.5,201,4.3,8.9,0.00067,0.00084,42.0,39.4,23,3,0,47.8,12.50,0.00,0.00
15min,AgWx,beryljct,423,08MAR2018:19:00:00,52.9,12.86,49.9,48.8,49.8,50.4,48.8,27,28,25,0.334,17.1,17.9,16.1,6.335,7.6,200,4.7,9.5,0.00066,0.00083,41.9,39.4,23,0,0,47.2,12.50,0.00,0.00
15min,AgWx,beryljct,423,08MAR2018:19:15:00,51.1,12.85,47.4,47.5,47.4,48.8,46.4,31,34,29,0.336,18.5,19.6,17.7,7.958,7.0,202,4.5,8.2,0.00056,0.00070,41.8,39.4,23,0,0,44.8,12.50,0.00,0.00
15min,AgWx,beryljct,423,08MAR2018:19:30:00,50.0,12.85,48.3,47.9,48.0,48.3,47.5,28,30,27,0.309,16.6,17.7,15.4,6.664,8.0,198,8.7,9.3,0.00063,0.00078,41.7,39.4,23,0,0,45.6,12.51,0.00,0.00
15min,AgWx,beryljct,423,08MAR2018:19:45:00,48.9,12.83,46.7,47.1,46.5,47.8,44.8,29,33,27,0.309,16.1,17.5,14.7,8.99,7.5,188,9.3,10.1,0.00058,0.00072,41.5,39.4,23,0,0,44.5,12.51,0.00,0.00
15min,AgWx,beryljct,423,08MAR2018:20:00:00,48.3,12.82,47.3,46.8,47.0,47.2,46.7,27,28,27,0.304,15.1,15.5,14.5,8.48,8.9,196,5.5,11.1,0.00065,0.00079,41.3,39.4,23,0,0,45.0,12.51,0.00,0.00
15min,AgWx,beryljct,423,08MAR2018:20:15:00,47.8,12.8,46.6,45.7,46.5,46.8,45.7,28,30,27,0.312,15.2,16.0,14.7,8.44,10.3,193,7.7,13.7,0.00067,0.00080,41.1,39.4,23,0,0,44.9,12.51,0.00,0.00
15min,AgWx,beryljct,423,08MAR2018:20:30:00,47.2,12.8,44.8,44.5,44.7,45.5,44.2,30,31,28,0.299,15.3,15.8,14.4,9.23,9.8,169,5.3,13.5,0.00060,0.00072,40.9,39.4,23,0,0,43.6,12.51,0.00,0.00
15min,AgWx,beryljct,423,08MAR2018:20:45:00,46.0,12.78,41.3,41.3,41.3,44.6,39.9,37,40,30,0.321,16.7,18.1,14.7,6.862,6.0,200,41,9.0,0.00041,0.00052,40.7,39.4,23,0,0,40.0,12.51,0.00,0.00
15min,AgWx,beryljct,423,08MAR2018:21:00:00,44.6,12.77,41.0,37.7,41.0,42.8,37.6,37,45,31,0.341,16.3,18.5,14.6,5.765,4.5,173,63,6.9,0.00035,0.00046,40.5,39.4,23,0,0,39.0,12.51,0.00,0.00
15min,AgWx,beryljct,423,08MAR2018:21:15:00,43.0,12.76,38.6,37.6,38.3,40.1,37.3,43,46,37,0.337,17.6,18.6,16.2,2.762,4.1,164,47,7.0,0.00028,0.00037,40.3,39.4,23,0,0,36.5,12.51,0.00,0.00
15min,AgWx,beryljct,423,08MAR2018:21:30:00,41.6,12.76,38.5,38.4,38.0,39.9,36.3,42,48,36,0.320,17.0,18.6,15.2,1.863,3.2,231,6.2,5.3,0.00024,0.00033,40.1,39.4,23,0,0,36.1,12.51,0.00,0.00
15min,AgWx,beryljct,423,08MAR2018:21:45:00,40.5,12.74,38.8,37.0,38.6,41.7,36.9,42,48,33,0.351,17.2,19.3,14.8,5.196,3.6,231,9.1,5.8,0.00027,0.00036,39.9,39.3,23,0,0,36.7,12.51,0.00,0.00
15min,AgWx,beryljct,423,08MAR2018:22:00:00,39.7,12.74,37.5,37.9,37.1,38.7,36.1,45,49,40,0.310,17.7,19.1,15.8,5.086,5.5,222,46,7.2,0.00030,0.00038,39.6,39.3,23,0,0,36.1,12.51,0.00,0.00
15min,AgWx,beryljct,423,08MAR2018:22:15:00,38.9,12.71,35.5,33.2,35.6,37.9,33.2,45,51,40,0.325,16.4,17.1,15.6,3.025,3.3,186,18,4.6,0.00022,0.00030,39.4,39.3,23,0,0,35.2,12.51,0.00,0.00
15min,AgWx,beryljct,423,08MAR2018:22:30:00,37.8,12.71,34.0,35.0,33.4,35.3,31.0,52,60,45,0.326,17.4,19.0,16.3,0,1.9,60,26,4.4,0.00013,0.00019,39.1,39.2,23,0,0,35.6,12.51,0.00,0.00
15min,AgWx,beryljct,423,08MAR2018:22:45:00,36.7,12.68,34.5,34.0,34.1,35.7,32.6,51,56,45,0.335,17.7,18.8,16.4,1.929,1.0,167,34,4.4,0.00008,0.00013,38.9,39.2,23,0,0,35.6,12.51,0.00,0.00
15min,AgWx,beryljct,423,08MAR2018:23:00:00,35.9,12.69,34.4,36.7,33.6,36.7,31.6,50,58,40,0.297,17.0,18.9,14.8,2.85,2.7,178,15,4.5,0.00017,0.00023,38.7,39.2,23,0,0,35.6,12.51,0.00,0.00
15min,AgWx,beryljct,423,08MAR2018:23:15:00,35.6,12.67,34.7,33.9,34.5,37.1,33.4,47,50,40,0.325,16.4,17.0,14.7,6.686,5.3,172,12,7.1,0.00026,0.00033,38.4,39.1,23,0,0,35.5,12.51,0.00,0.00
15min,AgWx,beryljct,423,08MAR2018:23:30:00,35.1,12.65,31.4,29.9,31.4,33.9,29.9,57,62,49,0.348,17.8,18.5,16.8,5.064,5.1,172,17,7.3,0.00019,0.00024,38.2,39.1,23,0,0,35.4,12.51,0.00,0.00
15min,AgWx,beryljct,423,08MAR2018:23:45:00,34.6,12.64,30.7,29.2,30.3,32.0,29.2,61,65,53,0.353,18.2,19.1,16.8,4.669,5.5,151,9.3,7.2,0.00018,0.00022,38.0,39.0,23,0,0,35.6,12.51,0.00,0.00
15min,AgWx,bigpiney,439,08MAR2018:00:00:00,22.3,12.85,21.6,20.4,21.4,22.4,20.0,73,79,69,0.297,14.1,14.9,13.6,0,0.4,131,3.1,1.3,-0.00017,-0.00025,30.5,31.0,11,0,0,0.0,.,0.00,0.00
15min,AgWx,bigpiney,439,08MAR2018:00:15:00,22.5,12.85,22.1,21.6,21.3,21.7,20.5,74,78,73,0.294,14.4,14.9,14.0,1.315,0.4,28,18,1.3,-0.00017,-0.00026,30.5,31.0,11,0,0,0.0,.,0.00,0.00
15min,AgWx,bigpiney,439,08MAR2018:00:30:00,22.6,12.85,21.4,20.9,20.8,21.6,20.4,76,78,74,0.300,14.6,15.0,14.3,0,0.5,3.5,3.4,1.8,-0.00016,-0.00024,30.5,31.0,11,0,0,0.0,.,0.00,0.00
15min,AgWx,bigpiney,439,08MAR2018:00:45:00,22.7,12.83,22.0,21.7,21.1,21.7,20.6,76,78,72,0.289,14.8,15.1,14.2,0,0.1,194,0.1,0.8,-0.00019,-0.00030,30.5,31.0,11,0,0,0.0,.,0.00,0.00
15min,AgWx,bigpiney,439,08MAR2018:01:00:00,22.7,12.82,21.5,20.9,21.0,21.7,20.8,76,77,73,0.293,14.5,14.9,14.1,1.666,0.3,85,25,1.7,-0.00018,-0.00027,30.5,31.0,11,0,0,0.0,.,0.00,0.00
15min,AgWx,bigpiney,439,08MAR2018:01:15:00,22.6,12.82,19.8,19.6,20.2,21.0,19.5,76,78,74,0.284,13.9,14.5,13.6,1.25,2.6,122,6.6,3.7,-0.00007,-0.00007,30.5,31.0,11,0,0,0.0,.,0.00,0.00
15min,AgWx,bigpiney,439,08MAR2018:01:30:00,22.5,12.8,19.4,20.1,20.1,21.0,19.6,76,78,73,0.276,13.7,14.0,13.2,4.801,2.4,152,40,4.8,-0.00007,-0.00009,30.5,31.0,11,0,0,0.0,.,0.00,0.00
15min,AgWx,bigpiney,439,08MAR2018:01:45:00,22.2,12.8,18.0,17.7,18.4,19.9,17.6,79,82,74,0.276,13.0,13.5,12.6,4.012,4.4,214,13,5.3,-0.00003,-0.00003,30.5,31.0,11,0,0,0.0,.,0.00,0.00
15min,AgWx,bigpiney,439,08MAR2018:02:00:00,21.7,12.79,19.9,19.6,18.1,19.6,17.3,81,83,79,0.288,13.4,14.3,12.7,3.069,2.9,233,3.6,4.2,-0.00006,-0.00007,30.5,31.0,11,0,0,0.0,.,0.00,0.00
15min,AgWx,bigpiney,439,08MAR2018:02:15:00,21.0,12.78,19.9,19.6,19.6,20.0,19.2,77,79,76,0.280,13.6,14.0,12.9,3.464,3.4,240,7.7,4.4,-0.00005,-0.00005,30.4,31.0,11,0,0,0.0,.,0.00,0.00
15min,AgWx,bigpiney,439,08MAR2018:02:30:00,20.0,12.77,14.5,13.6,16.0,19.7,13.2,79,83,75,0.232,10.6,13.6,8.5,4.494,5.2,223,12,6.1,-0.00002,-0.00001,30.4,31.0,11,0,0,0.0,.,0.00,0.00
15min,AgWx,bigpiney,439,08MAR2018:02:45:00,18.7,12.76,15.0,14.5,13.4,14.5,12.5,84,85,82,0.248,9.3,10.8,7.9,4.845,5.1,225,9.5,6.7,-0.00003,-0.00003,30.4,31.0,11,0,0,0.0,.,0.00,0.00
15min,AgWx,bigpiney,439,08MAR2018:03:00:00,17.4,12.74,14.7,13.5,14.0,15.3,12.9,81,84,79,0.227,9.3,11.0,7.8,4.691,4.9,237,4.4,5.7,-0.00002,-0.00002,30.4,31.0,11,0,0,0.0,.,0.00,0.00
15min,AgWx,bigpiney,439,08MAR2018:03:15:00,16.3,12.74,9.3,9.6,12.0,14.0,9.6,80,83,76,0.192,7.0,9.7,5.0,2.105,4.4,235,24,6.7,-0.00003,-0.00002,30.4,31.0,11,0,0,0.0,.,0.00,0.00
15min,AgWx,bigpiney,439,08MAR2018:03:30:00,15.5,12.72,13.0,12.5,11.5,13.2,9.4,84,86,81,0.217,7.5,9.0,4.9,3.31,3.2,249,24,5.0,-0.00005,-0.00005,30.4,31.0,11,0,0,0.0,.,0.00,0.00
15min,AgWx,bigpiney,439,08MAR2018:03:45:00,14.9,12.71,10.7,10.1,11.3,12.9,9.7,80,82,75,0.193,6.4,8.5,3.5,3.573,3.5,237,21,5.5,-0.00004,-0.00004,30.3,31.0,11,0,0,0.0,.,0.00,0.00
15min,AgWx,bigpiney,439,08MAR2018:04:00:00,14.4,12.7,12.3,12.2,10.8,12.5,10.0,82,84,80,0.220,6.4,8.6,5.2,2.017,2.4,253,22,3.8,-0.00006,-0.00007,30.3,31.0,11,0,0,0.0,.,0.00,0.00
15min,AgWx,bigpiney,439,08MAR2018:04:15:00,13.7,12.7,15.3,14.4,13.1,14.4,11.9,84,85,82,0.244,9.1,10.4,7.4,2.499,2.4,286,16,3.4,-0.00007,-0.00008,30.3,31.0,11,0,0,0.0,.,0.00,0.00
15min,AgWx,bigpiney,439,08MAR2018:04:30:00,13.5,12.69,14.5,14.5,14.3,14.7,14.0,83,84,82,0.244,10.1,10.6,9.6,2.916,2.9,324,13,3.6,-0.00006,-0.00007,30.3,31.0,11,0,0,0.0,.,0.00,0.00
15min,AgWx,bigpiney,439,08MAR2018:04:45:00,13.5,12.69,13.1,12.3,13.2,14.4,11.6,84,87,81,0.231,9.3,10.4,7.3,0,1.7,316,53,3.1,-0.00009,-0.00011,30.2,31.0,11,0,0,0.0,.,0.00,0.00
15min,AgWx,bigpiney,439,08MAR2018:05:00:00,13.2,12.67,13.9,13.3,12.4,13.5,10.7,86,87,82,0.233,9.1,10.2,6.3,3.354,2.7,238,15,4.8,-0.00007,-0.00008,30.2,31.1,11,0,0,0.0,.,0.00,0.00
15min,AgWx,bigpiney,439,08MAR2018:05:15:00,12.6,12.67,13.1,12.3,13.2,13.9,12.0,83,84,81,0.219,9.1,9.9,7.2,3.201,2.0,253,17,4.0,-0.00008,-0.00009,30.1,31.0,11,0,0,0.0,.,0.00,0.00
15min,AgWx,bigpiney,439,08MAR2018:05:30:00,11.8,12.65,11.5,13.0,11.0,13.1,8.5,84,88,76,0.232,7.1,9.6,2.6,4.297,4.1,243,16,5.5,-0.00004,-0.00004,30.1,31.0,11,0,0,0.0,.,0.00,0.00
15min,AgWx,bigpiney,439,08MAR2018:05:45:00,10.9,12.65,13.4,13.0,11.6,13.0,10.4,83,86,79,0.232,7.4,9.3,5.1,1.535,2.8,260,12,4.7,-0.00006,-0.00006,30.0,31.0,11,0,0,0.0,.,0.00,0.00
15min,AgWx,bigpiney,439,08MAR2018:06:00:00,10.1,12.63,5.2,6.5,9.4,13.1,5.5,81,85,74,0.166,4.7,9.3,-1.0,2.455,2.0,256,22,4.0,-0.00007,-0.00008,30.0,31.0,11,0,0,0.0,.,0.00,0.00
15min,AgWx,bigpiney,439,08MAR2018:06:15:00,9.2,12.63,9.5,8.3,7.3,9.2,5.2,83,86,78,0.190,3.3,6.0,-0.1,3.508,2.2,256,15,4.3,-0.00006,-0.00007,29.9,31.0,11,0,0,0.0,.,0.00,0.00
15min,AgWx,bigpiney,439,08MAR2018:06:30:00,8.8,12.63,7.6,9.4,11.5,13.4,7.7,83,89,73,0.171,7.2,8.9,2.5,3.771,2.4,255,15,4.5,-0.00006,-0.00007,29.9,31.0,11,0,0,0.0,.,0.00,0.00
15min,AgWx,bigpiney,439,08MAR2018:06:45:00,8.5,12.63,10.0,8.9,10.0,11.7,7.7,80,84,72,0.183,5.1,7.8,1.1,0.658,1.0,245,23,3.7,-0.00009,-0.00012,29.9,30.9,11,3,0,0.0,.,0.00,0.00
15min,AgWx,bigpiney,439,08MAR2018:07:00:00,8.3,12.78,10.1,8.4,8.7,9.6,7.2,82,84,79,0.184,4.3,5.5,2.1,2.214,1.4,207,5.6,3.5,-0.00006,-0.00008,29.8,31.0,11,20,0,0.0,.,0.00,0.00
15min,AgWx,bigpiney,439,08MAR2018:07:15:00,8.1,13.34,11.9,11.3,10.4,11.4,8.6,82,85,80,0.204,6.0,6.7,4.5,0,1.4,231,15,2.4,-0.00006,-0.00005,29.7,31.0,11,60,0,0.0,.,0.00,0.00
15min,AgWx,bigpiney,439,08MAR2018:07:30:00,8.6,15.02,13.0,11.9,11.3,12.3,8.9,80,81,75,0.210,6.2,7.1,2.7,0.592,0.3,253,2.1,1.0,0.00002,0.00002,29.7,31.0,11,101,0,0.0,.,0.00,0.00
15min,AgWx,bigpiney,439,08MAR2018:07:45:00,9.8,15.04,15.2,14.7,13.2,14.7,12.0,80,82,79,0.237,8.3,9.7,7.1,1.688,1.0,288,20,2.0,0.00015,0.00018,29.7,30.9,11,145,0,0.0,.,0.00,0.00
15min,AgWx,bigpiney,439,08MAR2018:08:00:00,11.5,15.08,16.6,15.8,15.2,16.0,14.5,79,80,78,0.247,10.0,11.0,9.3,0.855,0.8,344,34,2.1,0.00030,0.00033,29.6,30.9,11,191,0,0.0,.,0.00,0.00